Regional Weather Roundup
Issued by NWS

Home | Current Version | Previous Version | Text Only | Print | Product List | Glossary On
Versions: 1 2 3 4 5 6 7 8 9 10 11 12 13 14 15 16 17 18 19 20 21 22 23 24 25 26 27
000
ASUS45 KBOU 281807
RWRCO

WEATHER ROUNDUP FOR COLORADO
NATIONAL WEATHER SERVICE DENVER/BOULDER CO
1200 PM MDT TUE MAR 28 2017

NOTE: "FAIR" INDICATES FEW OR NO CLOUDS BELOW 12000 FEET WITH NO
SIGNIFICANT WEATHER AND/OR OBSTRUCTIONS TO VISIBILITY.

COZ001>005-013-030-031-281900-
...NORTHWEST COLORADO...

CITY           SKY/WX    TMP DP  RH WIND       PRES   REMARKS
CRAIG          LGT RAIN  37  34  89 SW10      29.94S
HAYDEN         CLOUDY    34  30  86 W5        29.93S WCI  30
MEEKER         LGT RAIN  38  35  89 W8        29.94S
MOUNT WERNER   NOT AVBL
STEAMBOAT SPGS CLOUDY    33  32  98 SW5       29.92S WCI  28
WALDEN         NOT AVBL
$$

COZ006>008-011-281900-
...WEST CENTRAL VALLEYS...

CITY           SKY/WX    TMP DP  RH WIND       PRES   REMARKS
GRAND JUNCTION LGT RAIN  48  41  76 NW12      29.91S
MONTROSE       CLOUDY    43  39  86 NW10      29.92S
EAGLE          PTSUNNY   45  34  65 CALM      29.91F
RIFLE          LGT RAIN  49  36  61 W12       29.90S
DELTA          PTSUNNY   48  40  73 CALM      29.90S
NUCLA          CLOUDY    45  37  76 W5        29.93F
$$

COZ017>023-064>068-281900-
...SOUTHWEST COLORADO...

CITY           SKY/WX    TMP DP  RH WIND       PRES   REMARKS
DURANGO        FAIR      47  34  60 W8        29.84S
CORTEZ         PTSUNNY   46  38  73 VRB3      29.87F
PAGOSA SPRINGS FAIR      46  32  59 W8        29.83F
TELLURIDE      LGT RAIN  35  31  85 W3        29.93S
WOLF CREEK PAS CLOUDY    23  23 100 NE3       29.97S
$$

COZ009-010-012-014-032>034-037-058>063-281900-
...CENTRAL COLORADO...

CITY           SKY/WX    TMP DP  RH WIND       PRES   REMARKS
ASPEN          CLOUDY    39  33  79 N5        29.88F
BUENA VISTA    PTSUNNY   47  26  44 SW5       29.82F
COPPER MTN     NOT AVBL
BERTHOUD PASS  SNOW      21  10  63 S8        29.97S VSB<1/4 WCI  12
COTTONWOOD PAS FAIR      45  21  39 NE5       29.88F
GUNNISON       PTSUNNY   42  32  67 SW10      29.88F
KREMMLING      LGT RAIN  43  37  81 N3        29.91S
LEADVILLE      CLOUDY    38  17  42 VRB3      29.87F
MONARCH PASS   FLURRIES  27  25  93 W6        30.03F WCI  20
SALIDA         FAIR      52  21  29 CALM      29.88F
SUNLIGHT       SNOW      27  27 100 NW5       29.98F VSB 1/4 WCI  21
WILKERSON PASS CLOUDY    30  27  86 N3        29.95F FOG
$$

COZ069>075-281900-
...SAN LUIS VALLEY/SANGRE DE CRISTO MOUNTAINS...

CITY           SKY/WX    TMP DP  RH WIND       PRES   REMARKS
ALAMOSA        PTSUNNY   47  29  49 S5        29.82F
LA VETA PASS   NOT AVBL
SAGUACHE       FAIR      48  27  43 NW8       29.83F
$$

COZ035-036-038>040-281900-
...NORTHERN COLORADO FRONT RANGE...

CITY           SKY/WX    TMP DP  RH WIND       PRES   REMARKS
DENVER INTL AP CLOUDY    45  40  82 NW17      29.85F
DMNS CITY PARK   N/A     44  37  76 N9G17     29.87S
AURORA         CLOUDY    42  42  99 NW15      29.88S
FRONT RANGE AP CLOUDY    46  43  87 NW12      29.86F
ERIE MUNI ARPT CLOUDY    45  40  82 N17       29.87F
BOULDER MUN AP LGT RAIN  45  41  87 NW9       29.88S
CENTENNIAL     CLOUDY    42  38  85 NW13      29.87S
BROOMFIELD     CLOUDY    45  39  81 N18       29.87F
FORT COLLINS   LGT RAIN  43  41  93 N15       29.89S
LONGMONT       CLOUDY    47  40  74 N14G20    29.90S
$$

COZ041-046-047-076>085-087-088-281900-
...PIKES PEAK/PALMER DIVIDE AND SOUTHERN FOOTHILLS...

CITY           SKY/WX    TMP DP  RH WIND       PRES   REMARKS
COLO. SPRINGS  CLOUDY    50  36  58 N20       29.85S
A. F. ACADEMY  CLOUDY    45  37  72 N17       29.85S
SCHRIEVER AFB  PTSUNNY   48  38  68 NE13G23   29.85S
ELLICOTT       CLOUDY   N/A N/A N/A NE10      29.85R
FALCON         CLOUDY    47  36  65 N14       29.87S
FORT CARSON    PTSUNNY   50  38  63 NE12      29.83F
LIMON          CLOUDY    43  42  97 S5        29.87S
MONUMENT HILL  FOG       36  36 100 N13       29.90R VSB<1/4
TRINIDAD       FAIR      51  37  58 SE8       29.81F
$$

COZ042>045-048>051-090-091-281900-
...NORTHEAST COLORADO...

CITY           SKY/WX    TMP DP  RH WIND       PRES   REMARKS
GREELEY ARPT   CLOUDY    46  42  86 N12       29.88S
AKRON          CLOUDY    46  44  93 SE12      29.86F FOG
BURLINGTON     LGT RAIN  45  44  97 SE20G25   29.89R FOG
WRAY           NOT AVBL
STERLING       CLOUDY    46  45  93 SE10      29.87S FOG
HOLYOKE        LGT RAIN  46  43  87 E15       29.92S
FORT MORGAN    CLOUDY    49  40  71 SE6       29.87S
$$

COZ086-089-092>099-281900-
...SOUTHEAST COLORADO...

CITY           SKY/WX    TMP DP  RH WIND       PRES   REMARKS
PUEBLO         PTSUNNY   53  42  66 NE10      29.81F
LA JUNTA       LGT RAIN  53  46  77 SE12      29.82S
LAMAR          RAIN      49  46  90 SE10      29.84S FOG
SPRINGFIELD      N/A     45  45 100 E9        29.84F
$$




USA.gov is the U.S. government's official web portal to all federal, state and local government web resources and services.